www.pogodaiklimat.ru

Погода и климат >> Архив погоды >> Индонезия >> Сентани


ПОГОДА в Сентани

  • Прогноз погоды в Сентани
  • Монитор погоды в Сентани

АРХИВ ПОГОДЫ в Сентани

Время (UTC), дата Ветер
(напр.,м/с)
 
Видим.   Явления Облачность Т
(С)
Тd
(С)
f
(%)
Тe
(С)
Тes
(С)
Комфортность P
(гПа)
Po
(гПа)
Тmin
(С)
Tmax
(С)
R
(мм)
R24
(мм)
S
(см)
18 10.09 штиль 0 10 км 8/3 300 м
[Frnb Ac trans Ci sp]
+24.5 +21.4 83 +31 +31 очень
душно
1009.7 1000.1
21 10.09 С 2 10 км 9/1 300 м
[Frnb Ac trans Ci fib]
+24.2 +20.7 81 +30 +30 очень
душно
1010.2 1000.6
00 11.09 ЮВ 4 10 км 5/3 400 м
[Cu Sc Ac trans Ci fib]
+29.5 +21.9 64 +38 +44 очень
душно
1011.3 1001.7 +24.0
03 11.09 ЮВ 4 10 км 6/4 400 м
[Cu med, cong Ac trans Ci fib]
+33.0 +19.5 45 +39 +47 очень
душно
1008.5 999.0
06 11.09 ЮВ 4 10 км 5/3 400 м
[Cu Sc Ac trans Ci fib]
+29.5 +21.9 64 +38 +42 очень
душно
1011.3 1001.7 +24.0
09 11.09 В 1 10 км осадки на расстоянии 8/3 330 м
[Cb cap Ac trans Ci sp]
+29.8 +22.0 63 +38 +38 очень
душно
1008.5 998.9
12 11.09 штиль 0 10 км 8/3 400 м
[Cu med, cong Ac trans Ci sp]
+27.0 +21.5 72 +34 +34 очень
душно
1011.1 1001.5 +34.5
15 11.09 штиль 0 10 км 8/3 400 м
[Cu med, cong Ac trans Ci sp]
+26.2 +20.3 70 +32 +32 очень
душно
1010.7 1001.2
18 11.09 штиль 0 10 км 8/3 400 м
[Cu med, cong Ac trans Ci sp]
+24.2 +19.9 77 +30 +30 очень
душно
1009.5 999.9
21 11.09 штиль 0 8000 м 9/3 300 м
[Frnb Ac As Ci sp]
+24.4 +21.5 84 +31 +31 очень
душно
1010.5 1001.0
00 12.09 ЮВ 4 10 км 6/3 400 м
[Cu hum Ac trans Ci sp]
+29.6 +21.8 63 +38 +43 очень
душно
1010.8 1001.2 +24.0
03 12.09 В 3 10 км 6/4 420 м
[Cu Sc Ac trans Ci fib]
+33.4 +20.3 46 +40 +50 очень
душно
1007.5 997.9
06 12.09 ЮВ 3 10 км 5/4 420 м
[Cu Sc Ac trans Ci fib]
+33.8 +22.8 53 +44 +48 опасность
перегрева
1005.6 996.1
09 12.09 Ю 3 10 км 4/3 400 м
[Cu med, cong Ac trans Ci sp]
+29.0 +22.5 68 +38 +38 очень
душно
1007.7 998.1
12 12.09 штиль 0 10 км 4/3 400 м
[Cu med, cong Ac trans Ci sp]
+26.6 +22.0 76 +34 +34 очень
душно
1010.6 1001.0 +35.0
15 12.09 З 2 10 км 8/3 400 м
[Cu med, cong Ac trans Ci sp]
+25.9 +22.0 79 +33 +33 очень
душно
1009.9 1000.4
18 12.09 ЮВ 2 10 км 9/3 400 м
[Cu med, cong Ac trans Ci sp]
+26.5 +22.3 78 +35 +35 очень
душно
1009.7 1000.2
21 12.09 штиль 0 10 км 5/3 420 м
[Cu hum Ac trans Ci sp]
+23.7 +20.6 83 +30 +30 очень
душно
1010.9 1001.4
00 13.09 ЮВ 4 10 км 4/3 420 м
[Cu hum Ac trans Ci fib]
+30.1 +21.7 61 +38 +45 очень
душно
1011.5 1001.9 +23.6
03 13.09 ЮВ 5 10 км 6/3 400 м
[Cu med, cong Ac trans Ci sp]
+33.4 +21.3 49 +41 +48 опасность
перегрева
1008.2 998.7
06 13.09 ЮВ 5 10 км 4/3 400 м
[Cu med, cong Ac trans Ci sp]
+32.6 +21.4 52 +41 +44 опасность
перегрева
1006.5 997.0
09 13.09 ЮВ 4 10 км 3/1 400 м
[Cu med, cong Ac trans Ci sp]
+29.8 +18.3 50 +35 +35 очень
душно
1008.1 998.5
12 13.09 ЮВ 5 10 км 3/1 400 м
[Cu med, cong Ac trans Ci sp]
+27.7 +22.8 75 +37 +37 очень
душно
1010.4 1000.8 +33.8
15 13.09 В 3 10 км 3/3 400 м
[Cu Sc Ac trans Ci sp]
+26.6 +20.4 69 +33 +33 очень
душно
1010.8 1001.2
18 13.09 З 2 10 км 4/3 400 м
[Cu Sc Ac trans Ci sp]
+23.2 +20.1 83 +30 +30 очень
душно
1009.7 999.8
21 13.09 штиль 0 10 км 4/3 400 м
[Frnb Ac trans Ci sp]
+23.1 +20.0 83 +30 +30 очень
душно
1011.6 1002.0
00 14.09 ЮВ 3 10 км 3/1 400 м
[Cu hum Ac trans Ci fib]
+29.2 +20.3 59 +36 +44 очень
душно
1012.6 1003.0 +22.6
03 14.09 ЮВ 4 10 км 3/1 400 м
[Cu hum Ac trans Ci fib]
+34.3 +18.8 40 +39 +52 опасность
солнечного
удара
1009.6 1000.0
06 14.09 ЮВ 3 10 км 3/1 400 м
[Cu hum Ac trans Ci fib]
+33.9 +21.6 49 +42 +48 опасность
перегрева
1007.3 997.7
09 14.09 Ю 2 10 км 4/3 400 м
[Cu hum Ac trans Ci fib]
+28.7 +20.2 60 +35 +35 очень
душно
1009.3 999.8
12 14.09 С 2 10 км 5/3 400 м
[Cu hum Ac trans Ci sp]
+25.8 +20.6 73 +32 +32 очень
душно
1011.7 1002.1 +34.6
15 14.09 штиль 0 10 км 6/3 400 м
[Cu hum Ac trans Ci sp]
+23.8 +18.9 74 +29 +29 душно 1011.0 1001.4
18 14.09 штиль 0 10 км 6/3 400 м
[Cu hum Ac trans Ci sp]
+22.5 +18.2 77 +28 +28 душно 1010.3 1000.7
21 14.09 штиль 0 10 км 4/1 400 м
[Cu hum Ac trans Ci sp]
+22.5 +19.5 83 +29 +29 очень
душно
1011.6 1002.0
00 15.09 В 2 10 км 3/1 400 м
[Cu hum Ci sp]
+28.4 +22.6 71 +38 +49 очень
душно
1012.3 1002.7 +22.0
03 15.09 В 3 10 км 4/3 420 м
[Cu Sc Ac trans Ci sp]
+32.4 +20.0 48 +39 +50 очень
душно
1009.0 999.5
06 15.09 ЮВ 6 10 км 4/3 420 м
[Cu Sc Ac trans Ci sp]
+32.8 +21.3 51 +41 +43 опасность
перегрева
1007.2 997.6
09 15.09 В 2 10 км 5/3 400 м
[Cu med, cong Ac trans Ci sp]
+29.3 +21.0 61 +37 +37 очень
душно
1009.9 999.5
12 15.09 З 2 10 км 6/3 400 м
[Cu med, cong Ac trans Ci sp]
+26.8 +20.6 69 +33 +33 очень
душно
1011.3 1001.7 +33.8
15 15.09 штиль 0 10 км 8/3 300 м
[Frnb Ac trans Ci sp]
+24.7 +19.7 74 +30 +30 очень
душно
1011.4 1001.8
18 15.09 штиль 0 10 км 6/4 300 м
[Frnb As op Ci ing]
+22.9 +21.0 89 +30 +30 очень
душно
1011.3 1001.7
21 15.09 С 2 10 км 4/1 300 м
[Frnb Ac trans Ci sp]
+23.7 +20.4 82 +29 +30 душно 1011.2 1001.6
00 16.09 ЮВ 4 10 км 4/4 400 м
[Cu Sc Ac trans Ci sp]
+29.8 +22.5 65 +39 +45 очень
душно
1012.0 1002.4 +23.3
03 16.09 ЮВ 4 10 км 4/4 400 м
[Cu med, cong Ac trans Ci sp]
+33.9 +20.0 44 +40 +49 очень
душно
1009.4 999.8
06 16.09 ЮВ 4 10 км 5/3 400 м
[Cu med, cong Ac trans Ci sp]
+32.6 +22.9 57 +43 +46 опасность
перегрева
1007.4 997.8
09 16.09 ЮВ 3 10 км 5/3 400 м
[Cu med, cong Ac trans Ci sp]
+29.4 +20.6 59 +36 +36 очень
душно
1008.3 998.8
12 16.09 СЗ 1 10 км 5/3 400 м
[Cu med, cong Ac trans Ci sp]
+26.4 +20.4 70 +33 +33 очень
душно
1011.2 1001.6 +34.5
15 16.09 ЮВ 3 10 км 5/3 400 м
[Cu med, cong Ac trans Ci sp]
+27.0 +23.0 79 +36 +36 очень
душно
1011.0 1001.4
18 16.09 штиль 0 10 км 4/3 300 м
[Frnb Ac trans Ci sp]
+23.9 +20.8 83 +30 +30 очень
душно
1010.9 1001.3
21 16.09 штиль 0 10 км 5/3 300 м
[Frnb Ac trans Cs]
+24.9 +23.1 90 +33 +33 очень
душно
1011.9 1002.3
00 17.09 ЮВ 4 10 км 4/3 420 м
[Cu hum Ac trans Ci fib]
+30.1 +22.2 63 +39 +45 очень
душно
1012.7 1003.1 +23.8
03 17.09 ЮВ 3 10 км 5/3 400 м
[Cu med, cong Ac trans Ci fib]
+33.6 +19.7 44 +39 +50 очень
душно
1009.6 1000.1
06 17.09 ЮВ 4 10 км 5/3 420 м
[Cu med, cong Ac trans Ci fib]
+34.0 +22.7 52 +44 +48 опасность
перегрева
1007.8 998.3
09 17.09 В 3 10 км 5/3 400 м
[Cu Sc Ac trans Ci fib]
+29.4 +21.9 64 +38 +38 очень
душно
1008.8 999.3
12 17.09 штиль 0 10 км 5/3 360 м
[Cu Sc Ac trans Ci fib]
+27.3 +22.0 73 +35 +35 очень
душно
1011.7 1002.1 +34.9

 

Местоположение метеостанции Сентани (Индонезия): широта -2.58 долгота 140.52 высота над уровнем моря 99 м.

В архиве по умолчанию представлена погода в Сентани за последнюю неделю. Архивные данные за месяц целиком и за предыдущие месяцы, начиная с января 2011 года, Вы можете получить, выбрав интересующий диапазон дат из раскрывающегося списка и нажав кнопку "Ввод!".


*Определитесь, кто Вы:
робот инопланетянин человек

Внимание! Время в таблицах - всемирное. Для получения местного времени необходимо прибавить поправку, которая равна 7 ч.

Смотрите также архив погоды в соседних городах и на ближайших метеорологических станциях:

Погода в Джаяпуре (Индонезия) (21 км)
Погода в Сарми (Индонезия) (218 км)
Погода в Вамене (Индонезия) (241 км)
Погода в Танах Мерах (Индонезия) (392 км)
Погода в Коконао (Индонезия) (434 км)
Погода в Серуи (Индонезия) (483 км)
Погода в Энаротали (Индонезия) (484 км)
Погода в Биаке (Индонезия) (514 км)
Погода в Набире (Индонезия) (564 км)
Погода в Мерауке (Индонезия) (655 км)

Пояснения к столбцам:

Ветер - указаны скорость ветра в м/с - средняя за 10 мин, порывы в срок и между сроками (в фигурных скобках) и направление, откуда дует ветер: С - северный, СВ - северо-восточный, В - восточный, ЮВ - юго-восточный, Ю - южный, ЮЗ - юго-западный, З - западный, СЗ - северо-западный.
Видимость - горизонтальная дальность видимости в метрах или километрах. При видимости от 1 до 10 км при отсутствии осадков обычно наблюдается дымка, при ухудшении видимости до 1 км и менее - туман. В сухую погоду видимость может ухудшаться дымом, пылью или мглою.
Явления - указаны атмосферные явления, наблюдавшиеся в срок или в последний час перед сроком; фигурными скобками обозначены явления, наблюдавшиеся между сроками (за 1-3 часа до срока); квадратными скобками обозначены град или гололедные отложения с указанием их диаметра в мм.
Облачность - указаны через наклонную черту общая и нижняя облачность в баллах и высота нижней границы облаков в метрах; квадратными скобками обозначены формы облаков: Ci - перистые, Cs - перисто-слоистые, Cc - перисто-кучевые, Ac - высококучевые, As - высокослоистые, Sc - слоисто-кучевые, Ns - слоисто-дождевые, Cu - кучевые, Cb - кучево-дождевые. Подробнее классификацию облаков см. в Атласе облаков (PDF).
T - Температура воздуха - температура, измеренная на высоте 2 м над землей.
Td - Температура точки росы - температура, при понижении до которой содержащийся в воздухе водяной пар достигнет насыщения.
f - Относительная влажность воздуха - влажноcть воздуха, измеренная на высоте 2 м над землей.
Te - Эффективная температура - температура, которую ощущает одетый по сезону человек в тени. Характеристика душности погоды. При расчете учитывается влияние влажности воздуха и скорости ветра на теплоощущения человека.
Tes - Эффективная температура на солнце - температура, которую ощущает человек, с поправкой на солнечный нагрев. Характеристика знойности погоды. Зависит от высоты солнца над горизонтом, облачности и скорости ветра. Ночью, в пасмурную погоду, а также при ветре 12 м/с и более поправка равна нулю.
P - Атмосферное давление - приведенное к уровню моря атмосферное давление.
Po - Атмосферное давление - измеренное на уровне метеостанции атмосферное давление.
Tmin - Минимальная температура - минимум температуры воздуха на высоте 2 м над землей.
Tmax - Максимальная температура - максимум температуры воздуха на высоте 2 м над землей.
R - Количество осадков - Количество выпавших осадков за период времени, мм. При наведении курсора мыши на число - период времени, за который выпало указанное количество осадков.
R24 - Количество осадков - Количество выпавших осадков за 24 часа, мм.
S - Снежный покров - Высота снежного покрова, см. При наведении курсора мыши на число - состояние снежного покрова и степень покрытия местности в баллах.